STARLINK-33909, 63804

Orbit data source: Space-Track

STARLINK-33909, 63804 is a payload satellite owned by SpaceX/Seattle (US) in LEO that was launched on Sun, 04 May 2025 UTC via an FALCON 9 launch vehicle from the Air Force Eastern Test Range (AFETR). Payload-class satellites include a variety of spacecraft equipped with specific instruments for various scientific and technological missions. These include communications satellites like Starlink; space stations such as the ISS; scientific satellites like the Hubble; Earth observation satellites from companies like Planet Labs, Umbra, and HawkEye 360; GPS; miniature CubeSats for education and research; and military/defense satellites.

Loading next visibility...
Identifier
63804, 2025-092A
Orbit
LEO
Last TLE update
21 hours ago
Origin
Manufacturer
SpaceX/Seattle
Mission
Operational spacecraft
Bus & Motor
STARLINK V2MO, Unknown motor
Mass
575 kg wet, ~530 kg dry
Launch date (UTC)
2025-05-04 (2 months ago)
Launch vehicle
FALCON 9
Launch site
Air Force Eastern Test Range (AFETR)
Object type
Payload
Rocket body
Debris
Shape & HBR
Unknown
Radar Cross Section
Large (>1 m²)

Expand to show TLE details & history

TLE from 21 hours ago
0 STARLINK-33909
1 63804U 25092A   25169.43594267 -.00042028  00000-0 -10174-2 0  9995
2 63804  43.0041 225.5047 0005126 240.6567 119.3777 15.40296408  8196
Epoch: 2025-06-18T10:27Z
TLE epoch observation values (Epoch: 2025-06-18T10:27:45.446Z)
Latitude
-0.00007°
Longitude
161.64725°
Altitude
446.725 km
Speed
7.645 km/s
True Right ascension
15h 02m 01s
True Declination
0° 00' 00"
Sunlit
Object was in full shadow at epoch
Visualization orbit readout
Latitude
42.64393°
Longitude
-102.42002°
Altitude
451.458 km
Speed
7.646 km/s
Apparent Right ascension
01h 35m 28s
Apparent Declination
6° 59' 00"
Sunlit
Object is in daylight
Visualization observer readout
Local Sidereal Time
17:57:42
Azimuth
68.454° E
Elevation
-13.709°
Doppler factor
1
Orbital elements
Apogee altitude
450.688 km
Perigee altitude
443.69 km
Semi-major axis
6,825.326 km
Eccentricity
0.00051
Inclination
43.0041°
RAAN
225.5047°
Arg. of periapsis
240.6567°
True anomaly
Unknown
Mean anomaly
119.3777°
Eccentric anomaly
Unknown
Mean motion
3.84909 °/min
Orbital period
93.53 mins
BSTAR
-0.0010174
Loading maneuver chart data...
Loading SW <> Apogee altitude chart data...
Loading historical data...
Loading historical data...
Loading historical data...
Loading historical data...
Loading historical data...
Loading historical data...
Loading historical data...

STARLINK-33909 Visibility forecast

Observer location: undefined°, undefined°

Span
Click to sort rows by Start time (UTC) header in descending order
Start Az.
Max El. time (UTC)
Max El. Az.
Max El.
End time (UTC)
End Az.
6 mins2025-06-19 08:32:06.831Z265.42° W2025-06-19 08:35:06.831Z31.451° NE40.76°2025-06-19 08:38:06.831Z70.268° E
5 mins2025-06-19 10:11:06.831Z296.859° NW2025-06-19 10:13:06.831Z9.257° NNE37.809°2025-06-19 10:16:06.831Z80.35° E
5 mins2025-06-19 11:49:06.831Z282.887° WNW2025-06-19 11:51:06.831Z226.832° WSW43.307°2025-06-19 11:54:06.831Z118.697° SE
4 mins2025-06-20 06:15:06.831Z193.6° SSW2025-06-20 06:17:06.831Z141.087° SSE24.784°2025-06-20 06:19:06.831Z96.621° ESE
|